Retour au catalogue

STARLINK-32744

ActifCommunicationsVLEO
NORAD 62509·PAYLOAD·🇺🇸 United States

Lancé Jan 6, 2025 depuis Cape Canaveral Space Force Station

Loading…

Prochains Passages (prochaines 24 heures)

TLE

FraisSource: CelesTrak SupGP

Époque: Sep 14, 2026, 22:30 UTC

1 62509C 25003Y   26257.93798611  .00009631  00000+0  34886-3 0  2575
2 62509  43.0005 300.5014 0001574 265.5539   3.1953 15.27570083    11

Suivez STARLINK-32744 en temps réel avec AllMySat

Download on the App Store